Presure
140 143 144 145 150 200 260 147 156 149 286 167 233 268 257 244 147 237 242 239 241 213 244 237 232 209 225
150 148 150 148 144 145 145 156 278 283 278 267 240 249 131 147 255 145 239 233 234 247 231 220 221 228 213
145 158 175 156 163 138 266 246 254 252 199 181 273 255 250 250 241 238 239 241 229 227 229 225 216 218 218
207 264 211 188 260 195 213 121 253 257 246 250 230 128 235 240 240 235 231 232 233 227 221 218 222 217 215
258 256 265 262 243 196 156 224 174 243 228 141 234 236 228 243 231 230 230 217 222 219 223 221 224 223 227
247 243 236 247 244 131 130 223 242 229 239 235 229 230 231 233 239 229 221 218 225 224 232 226 222 235 240
244 236 234 250 154 140 256 233 238 228 234 229 230 235 232 228 234 232 231 229 228 233 237 241 241 249 249
192 145 195 194 233 227 221 232 232 226 221 221 224 228 231 231 229 236 222 234 237 244 246 251 263 245 227
231 233 231 231 231 229 232 233 229 227 229 242 234 232 234 235 235 231 232 239 244 242 242 238 229 231 211
228 230 231 234 232 228 225 228 245 244 246 244 246 248 240 258 267 269 261 257 264 233 238 247 229 256 218
241 242 243 212 168 254 256 253 248 248 248 185 246 249 250 204 245 249 255 262 263 265 268 274 285 303 254
248 253 247 249 265 263 246 278 276 290 287 294 261 296 293 276 292 296 299 303 306 313 215 306 301 243 251
261 257 266 278 278 271 246 237 239 247 262 258 264 270 296 301 311 288 301 295 312 315 298 376 161 365 345
274 277 247 260 236 312 317 314 310 310 319 318 311 254 316 323 325 362 446 431 418 385 354 343 332 324 322
284 275 300 319 329 328 333 378 395 394 434 444 451 425 419 415 412 402 381 352 343 334 325 319 316 322 328
336 339 326 415 442 432 430 424 421 423 413 400 390 379 373 366 346 335 328 325 316 308 310 314 315 400 405
448 439 431 306 405 407 407 404 397 380 366 144 346 336 322 314 316 310 309 305 304 305 305 317 390 397 368
Wind_Speed
73 77 76 77 79 74 70 79 84 82 64 85 70 65 65 75 65 71 72 69 67 70 60 60 59 65 58
77 79 81 81 75 78 79 89 60 59 60 61 72 68 62 62 61 61 67 72 68 60 60 62 66 61 67
74 77 77 89 91 51 52 65 62 63 74 75 57 57 61 59 62 66 67 64 63 65 64 65 67 68 71
68 48 64 53 50 53 53 56 52 55 60 60 72 65 67 64 67 65 65 64 64 65 66 68 72 73 75
41 43 39 42 54 55 61 54 67 63 60 66 66 69 67 66 68 68 67 72 70 71 72 73 76 77 82
44 51 59 53 55 65 69 71 66 72 65 69 73 76 73 74 74 74 75 77 76 76 80 79 76 88 87
52 60 63 58 68 69 62 68 68 73 74 76 78 80 80 80 80 79 80 81 81 85 89 92 88 93 89
61 67 64 66 65 69 71 74 76 79 78 77 84 85 89 88 86 91 84 88 92 99 92 91 99 86 83
65 69 71 73 75 77 80 81 82 85 86 90 90 89 95 98 95 90 89 95 99 96 90 87 84 87 79
72 76 79 82 82 81 81 84 96 97 103 96 102 100 94 109 108 109 107 107 106 89 91 98 88 101 82
82 86 89 81 70 98 100 100 99 101 102 73 101 103 101 84 106 105 107 110 109 109 109 110 110 105 84
82 85 89 92 90 92 94 92 94 99 102 103 95 107 109 102 112 116 116 115 112 111 81 95 95 84 77
82 83 87 93 93 93 97 88 91 96 101 100 102 103 110 108 107 103 107 103 108 106 92 51 67 48 53
92 94 92 91 90 99 100 98 97 99 100 98 97 88 99 100 93 93 48 46 44 40 41 44 46 52 53
95 90 97 101 104 102 103 95 87 88 61 57 47 44 44 43 40 37 36 35 36 37 42 45 48 48 47
96 98 98 63 50 50 50 50 48 44 39 36 34 33 30 29 29 30 32 31 34 41 42 44 44 18 25
47 43 43 69 42 41 40 34 30 26 26 48 25 24 26 30 29 31 31 34 38 40 40 43 11 16 30
Wind_Direction
288 290 293 293 293 287 274 296 294 298 273 290 281 274 273 273 287 280 282 281 280 286 279 279 277 283 275
285 288 290 292 296 297 297 293 273 271 271 274 273 272 287 283 275 285 275 278 280 277 281 282 278 281 280
290 289 286 287 286 283 271 271 271 270 287 290 277 274 274 273 274 274 276 277 279 278 277 279 279 281 280
278 271 285 278 270 279 278 290 275 275 273 270 277 286 275 274 273 277 276 275 278 281 279 278 279 279 278
273 275 280 278 270 281 287 274 283 270 272 281 274 276 278 277 276 276 279 275 277 277 277 278 280 281 285
268 269 270 268 266 288 291 278 274 276 277 280 281 281 280 280 281 276 274 276 278 279 283 281 282 286 284
270 271 273 272 285 287 278 279 278 279 278 279 280 279 279 279 280 280 279 280 281 283 282 283 283 285 283
279 285 281 281 276 276 277 278 278 278 279 279 281 282 283 283 282 282 282 283 283 284 283 281 283 282 281
281 280 280 280 279 279 280 279 280 281 281 278 278 279 280 280 281 281 282 282 283 284 285 284 282 283 284
284 284 282 280 280 280 280 280 277 277 277 278 278 278 279 280 278 277 279 281 280 283 283 284 279 283 280
280 279 278 278 279 277 277 277 277 277 277 285 279 279 279 279 282 284 283 281 281 282 283 284 285 285 286
281 281 280 281 282 282 280 279 277 275 274 275 278 274 275 278 276 278 280 280 281 282 283 286 285 286 284
291 287 288 291 287 282 284 288 288 287 281 284 283 281 276 276 275 278 281 285 284 284 286 278 280 275 278
295 295 294 287 292 290 289 287 285 283 282 280 279 282 280 279 282 283 282 282 281 276 276 278 279 279 283
294 292 294 291 290 288 287 285 286 284 289 291 291 287 285 285 285 279 276 275 277 277 277 280 282 286 287
297 296 294 293 292 291 290 290 292 294 291 290 290 288 286 284 280 277 278 279 278 279 283 285 287 263 179
298 296 297 292 295 296 296 297 293 286 286 283 283 284 284 283 283 282 283 283 282 282 284 289 214 188 176